Showing default

INTELSAT 34, 40874

Orbit data source: Space-Track

INTELSAT 34, 40874 is a payload satellite owned by Intelsat SA (US) (US) in GEO that was launched on Thu, 20 Aug 2015 UTC via an ARIANE 5ECA launch vehicle from the French Guiana (FRGUI). Payload-class satellites include a variety of spacecraft equipped with specific instruments for various scientific and technological missions. These include communications satellites like Starlink; space stations such as the ISS; scientific satellites like the Hubble; Earth observation satellites from companies like Planet Labs, Umbra, and HawkEye 360; GPS; miniature CubeSats for education and research; and military/defense satellites.

Loading next visibility...
Identifier
40874, 2015-039A
Orbit
GEO
Country
Flag of UnknownUnknown / ITSO
Related business
Manufacturer
SS/Loral (MDA)
Mission
Operational Commercial Communications
Bus & Motor
LS-1300, R-4D
Mass
3,300 kg wet, ~1,800 kg dry
Launch date (UTC)
2015-08-20 (10 years ago)
Launch vehicle
ARIANE 5ECA
Launch site
French Guiana (FRGUI)
Object type
Payload
Rocket body
Debris
Shape & HBR
Box + 2 Pan, 12.3 m
Radar Cross Section
38.748 m², Large (>1 m²)

Expand to show TLE details & history
Last TLE update: 13 hours ago

TLE from 13 hours ago
0 INTELSAT 34
1 40874U 15039A   25348.26277005 -.00000268  00000-0  00000-0 0  9999
2 40874   0.0131 321.2524 0000589 194.4725 326.5566  1.00272082 37772
Epoch: 2025-12-14T06:18Z
TLE epoch observation values (Epoch: 2025-12-14T06:18:23.332Z)
Latitude
0.01336°
Longitude
-55.50692°
Altitude
35,783.935 km
Speed
3.075 km/s
True Right ascension
08h 09m 04s
True Declination
0° 00' 48"
Sunlit
Object was in daylight at epoch
Visualization orbit readout
Latitude
Unknown
Longitude
Unknown
Altitude
Unknown
Speed
Unknown
Apparent Right ascension
Unknown
Apparent Declination
Unknown
Sunlit
N/A
Visualization observer readout
Local Sidereal Time
18:16:23
Azimuth
Unknown
Elevation
Unknown
Doppler factor
Unknown
Orbital elements
Apogee altitude
35,790.066 km
Perigee altitude
35,785.099 km
Semi-major axis
42,165.719 km
Eccentricity
0.00006
Inclination
0.0131°
RAAN
321.2524°
Arg. of periapsis
194.4725°
True anomaly
326.55288°
Mean anomaly
326.5566°
Eccentric anomaly
326.55474°
Mean motion
0.25067 °/min
Orbital period
1,436.15 mins
BSTAR
0
Loading maneuver chart data...
Computing Atmospheric mass density...
Loading historical data...
Loading historical data...
Loading historical data...
Loading historical data...
Loading historical data...
Loading historical data...
Loading historical data...
Other satellites on launch #39 in the year 2015 (2015-08-20 UTC)

Documentation

Showing up to 5 results
|